Location: Pedholt
(56.0260°N, 10.2097°E)
Time: 18:36:05
(UTC+00:00)

Transit 2A Rocket - Visible Passes

Search period start: 27 July 2021 00:00
Search period end: 06 August 2021 00:00
Orbit: 589 x 913 km, 66.7° (Epoch: 27 July)

Date Brightness Start Highest point End Pass type
(mag) Time Alt. Az. Time Alt. Az. Time Alt. Az.
27 Jul 7.1 01:05:13 10° W 01:07:02 12° WSW 01:08:47 10° WSW visible
27 Jul 6.1 20:55:03 10° NW 20:59:57 41° NNE 21:05:16 10° E visible
27 Jul 5.1 22:37:36 10° NW 22:42:54 70° SW 22:46:56 20° SSE visible
28 Jul 6.8 00:21:10 10° WNW 00:24:47 18° WSW 00:26:48 15° SW visible
28 Jul 5.1 21:54:57 10° NW 22:00:15 85° NE 22:05:00 16° SE visible
28 Jul 6.3 23:37:58 10° WNW 23:42:27 27° WSW 23:44:52 20° SSW visible
29 Jul 5.4 21:12:18 10° NW 21:17:31 63° NE 21:23:08 10° ESE visible
29 Jul 5.8 22:55:02 10° NW 23:00:01 39° WSW 23:03:00 23° S visible
30 Jul 5.8 20:29:39 10° NW 20:34:44 48° NE 20:40:14 10° ESE visible
30 Jul 5.4 22:12:15 10° NW 22:17:30 56° SW 22:21:11 21° SSE visible
30 Jul 7.1 23:56:27 10° WNW 23:59:11 14° WSW 00:01:04 12° SW visible
31 Jul 5.2 21:29:33 10° NW 21:34:54 79° SW 21:39:25 17° SE visible
31 Jul 6.7 23:12:53 10° WNW 23:16:55 21° WSW 23:19:18 16° SW visible
01 Aug 5.2 20:46:54 10° NW 20:52:14 76° NE 20:57:42 12° SE visible
01 Aug 6.3 22:29:48 10° WNW 22:34:32 31° WSW 22:37:34 19° SSW visible
02 Aug 5.6 20:04:15 10° NW 20:09:28 57° NE 20:15:09 10° ESE visible
02 Aug 5.8 21:46:56 10° NW 21:52:05 45° WSW 21:55:53 19° S visible
02 Aug 7.4 23:32:52 10° W 23:33:32 10° WSW 23:34:13 10° WSW visible
03 Aug 5.4 21:04:11 10° NW 21:09:32 64° SW 21:14:15 16° SSE visible
03 Aug 7.1 22:47:59 10° WNW 22:51:20 16° WSW 22:54:08 12° SW visible
04 Aug 5.2 20:21:30 10° NW 20:26:54 88° SW 20:32:40 10° SE visible
04 Aug 6.7 22:04:39 10° WNW 22:09:01 24° WSW 22:12:33 14° SSW visible
05 Aug 6.2 21:21:39 10° NW 21:26:37 35° WSW 21:31:00 14° S visible
